Location: Unspecified
(0.0000°N, 0.0000°E)
Time: 19:37:15
(UTC+00:00)

SO-50 - Visible Passes

Search period start: 03 October 2023 00:00
Search period end: 13 October 2023 00:00
Orbit: 596 x 676 km, 64.6° (Epoch: 03 October)

Date Brightness Start Highest point End Pass type
(mag) Time Alt. Az. Time Alt. Az. Time Alt. Az.
03 Oct ? 19:11:18 10° SW 19:15:29 30° WNW 19:19:42 10° N visible
05 Oct ? 18:16:22 10° SSW 18:21:03 59° WNW 18:25:47 10° NNE visible
06 Oct ? 04:51:09 10° NE 04:52:28 11° ENE 04:53:48 10° E visible
06 Oct ? 18:40:29 10° WSW 18:43:53 19° WNW 18:47:18 10° NNW visible
07 Oct ? 05:11:16 10° N 05:15:18 36° ENE 05:19:19 10° SE visible
09 Oct ? 04:17:46 10° NNE 04:20:50 19° ENE 04:23:54 10° ESE visible
09 Oct ? 18:10:26 10° W 18:12:15 12° WNW 18:14:03 10° NW visible
10 Oct ? 04:39:18 10° NNW 04:43:37 63° ENE 04:47:56 10° SSE visible
11 Oct ? 05:02:22 10° NW 05:06:22 36° WSW 05:10:23 10° S visible
12 Oct ? 03:48:22 28° NE 03:49:09 30° ENE 03:52:58 10° SE visible
